Showing default

IRIDIUM 163, 43575

Orbit data source: Space-Track

IRIDIUM 163, 43575 is a payload satellite owned by Iridium (US) in LEO that was launched on Wed, 25 Jul 2018 UTC via an FALCON 9 launch vehicle from the Air Force Western Test Range (AFWTR). Payload-class satellites include a variety of spacecraft equipped with specific instruments for various scientific and technological missions. These include communications satellites like Starlink; space stations such as the ISS; scientific satellites like the Hubble; Earth observation satellites from companies like Planet Labs, Umbra, and HawkEye 360; GPS; miniature CubeSats for education and research; and military/defense satellites.

Loading next visibility...
Identifier
43575, 2018-061G
Orbit
LEO
Country
Flag of USUS
Related business
Manufacturer
NGIS SSG Gilbert
Mission
Operational Commercial Communications
Bus & Motor
ELITEBUS, Unknown motor
Mass
860 kg wet, 700 kg dry
Launch date (UTC)
2018-07-25 (7 years ago)
Launch vehicle
FALCON 9
Launch site
Air Force Western Test Range (AFWTR)
Object type
Payload
Rocket body
Debris
Shape & HBR
Trap Box + 2 Pan, 4.7 m
Radar Cross Section
14.423 m², Large (>1 m²)

Expand to show TLE details & history
Last TLE update: 16 hours ago

TLE from 16 hours ago
0 IRIDIUM 163
1 43575U 18061G   25258.74322313  .00000209  00000-0  67450-4 0  9994
2 43575  86.4044 171.4207 0002150  88.6694 271.4748 14.34218046374047
Epoch: 2025-09-15T17:50Z
TLE epoch observation values (Epoch: 2025-09-15T17:50:14.478Z)
Latitude
-0.00003°
Longitude
-91.08313°
Altitude
780.678 km
Speed
7.464 km/s
True Right ascension
11h 25m 40s
True Declination
0° 00' 00"
Sunlit
Object was in daylight at epoch
Visualization orbit readout
Latitude
Unknown
Longitude
Unknown
Altitude
Unknown
Speed
Unknown
Apparent Right ascension
Unknown
Apparent Declination
Unknown
Sunlit
N/A
Visualization observer readout
Local Sidereal Time
02:15:05
Azimuth
Unknown
Elevation
Unknown
Doppler factor
Unknown
Orbital elements
Apogee altitude
776.168 km
Perigee altitude
773.093 km
Semi-major axis
7,152.768 km
Eccentricity
0.00022
Inclination
86.4044°
RAAN
171.4207°
Arg. of periapsis
88.6694°
True anomaly
271.45017°
Mean anomaly
271.4748°
Eccentric anomaly
271.46249°
Mean motion
3.58783 °/min
Orbital period
100.34 mins
BSTAR
0.00006745
Loading maneuver chart data...
Computing Atmospheric mass density...
Loading historical data...
Loading historical data...
Loading historical data...
Loading historical data...
Loading historical data...
Loading historical data...
Loading historical data...

Documentation

Showing up to 5 results
|